SHARC (42712 NORAD) Tracking and Keplerian Element Data

This shows tracking and keplerian element data for the satellite.

Feedback or suggestion? Click here.




ElementValue
Catalog42712
NameSHARC
Epoch Orbit11033
Epoch Day111.73836124
Epoch Year2019
RAAN217.2608
Inclination51.6244
Eccentricity0.0011455
Argument of Perigee335.9344
Mean Anonmoly24.1132
Mean Motion16.05500518
Decay Rate0.00420923
L11 42712U 98067LT 19111.73836124 .00420923 93440-4 57576-3 0 9990
L22 42712 51.6244 217.2608 0011455 335.9344 24.1132 16.05500518110335

Live tracking and technical data element details for SHARC (NORAD 42712). SHARC can be tracked NOW for your location showing map with azimuth and elevation plus other details from your city location.

Track the satellite on the map from your city or location and see movement details for azimuth, elevation, latitude, longitude, range, height, and movement on the map or in text.







IsCatalogInMostPopularTable: catalog: 42712, numindb: 225
Update: records affected: 1



GetName: 42712 SHARC

Hit Count: updated at: Tue, 23 Apr 2019 02:45:18 GMT